SCP
5 4 4 4 3 2 2 3 6 10 8 6 4 2 1 1 1 1 1 1 1 1 1 1 1 1 1 1 1 2 1 1 0 0 1 1 1 1 1 0 0 1 1
5 4 4 3 3 3 2 2 4 7 7 5 3 1 1 1 1 1 1 1 1 1 1 1 1 1 1 1 1 1 1 1 0 0 0 0 1 1 1 0 0 0 0
4 4 4 4 3 3 2 2 3 4 5 4 3 1 1 1 1 1 1 1 1 1 1 1 1 1 1 1 1 1 1 1 0 0 0 0 0 0 0 0 0 0 0
4 4 4 4 4 4 3 2 2 3 4 4 2 1 1 1 0 0 0 0 1 1 1 1 1 1 1 1 1 1 1 1 0 0 0 0 0 0 0 0 0 0 0
4 4 5 5 5 4 3 3 2 2 3 3 2 1 1 1 1 0 0 0 0 0 1 1 1 1 1 1 1 1 1 1 1 1 1 0 0 0 0 0 0 0 0
4 4 5 5 5 5 4 3 3 2 3 3 2 1 1 1 1 1 0 0 0 0 0 0 1 1 1 1 1 1 1 1 1 1 1 1 1 1 0 0 0 0 0
5 5 5 5 5 5 5 4 4 3 3 3 2 1 1 1 1 0 0 0 0 0 0 0 0 0 0 1 1 0 0 0 1 1 1 1 1 1 1 0 0 0 0
4 5 5 4 4 4 4 4 5 5 4 3 2 2 2 1 1 0 0 0 0 0 0 0 0 0 0 0 0 0 0 0 0 0 0 1 1 1 1 1 1 0 0
4 4 5 5 4 3 3 4 5 5 5 4 2 2 2 1 1 0 0 0 1 1 0 0 0 0 0 0 0 0 0 0 0 0 0 0 0 0 1 1 1 1 1
4 4 4 5 5 4 4 6 6 5 5 4 3 2 2 2 1 0 0 0 1 1 1 0 0 0 0 0 0 0 0 0 0 0 0 0 0 0 0 1 1 1 1
4 3 3 4 5 4 5 7 6 4 4 4 4 3 2 2 1 0 0 1 1 1 1 0 0 0 0 0 0 0 0 0 0 0 0 0 0 0 0 1 1 1 1
4 3 2 3 4 4 5 5 5 3 3 4 4 3 3 2 1 0 0 0 1 1 1 1 0 0 0 0 0 0 0 0 0 0 0 0 0 0 0 1 1 1 1
2 2 2 3 4 4 4 4 4 3 3 4 4 3 3 3 2 1 0 0 0 1 1 1 0 0 0 0 0 0 0 0 0 1 0 0 0 0 0 0 0 1 1
1 1 2 2 3 5 5 4 4 3 3 4 4 4 3 3 2 1 0 0 0 0 1 1 0 0 0 0 0 0 0 0 0 1 1 0 0 0 0 0 1 1 1
1 1 2 2 3 4 4 3 3 3 3 3 4 4 4 3 2 2 1 0 0 0 0 0 0 0 0 0 0 0 0 0 0 0 0 0 0 0 1 1 1 1 1
1 1 2 3 3 2 2 1 1 1 1 2 3 3 3 3 2 1 0 0 0 0 0 0 0 0 0 0 0 0 0 0 0 0 0 0 0 1 1 1 1 1 1
1 1 1 2 2 1 1 0 0 1 1 1 1 1 2 2 1 0 0 0 0 0 0 0 0 0 0 0 0 0 0 0 0 0 0 0 0 0 1 1 1 1 1
0 0 1 1 2 1 1 0 1 1 1 0 0 0 0 0 0 0 0 0 0 0 0 0 0 0 0 0 0 0 0 0 0 0 0 0 0 0 0 0 0 0 0
0 0 0 1 1 1 1 1 1 1 1 1 0 0 0 0 0 0 0 0 0 0 0 0 0 0 0 0 0 0 0 0 0 0 0 0 0 0 0 0 0 0 0
0 0 0 0 1 1 1 1 1 1 1 1 0 0 0 0 0 0 0 0 0 0 0 0 0 0 0 0 0 0 0 0 0 0 0 0 0 0 0 0 0 0 0
0 0 0 0 1 1 1 1 1 1 1 0 0 0 0 0 0 0 0 0 0 0 0 0 0 0 0 0 0 0 0 0 0 0 0 0 0 0 0 0 0 0 0
0 0 0 0 1 1 1 1 1 1 1 0 0 0 0 0 0 0 0 0 0 0 0 0 0 0 0 0 0 0 0 0 0 0 0 0 0 0 0 0 0 0 0
0 0 0 0 0 0 1 1 1 1 0 0 0 0 0 0 0 0 0 0 0 0 0 0 0 0 0 0 0 0 0 0 0 0 0 0 0 0 0 0 0 0 0
0 0 0 0 0 0 1 1 1 0 0 0 0 0 0 0 0 0 0 0 0 0 0 0 0 0 0 0 0 0 0 0 0 0 0 0 0 0 0 0 0 0 0
0 0 0 0 0 0 1 1 0 0 0 0 0 0 0 0 0 0 0 0 0 0 0 0 0 0 0 1 1 0 0 0 0 0 0 0 0 0 0 0 0 0 0
0 0 0 0 0 0 0 0 0 0 0 0 0 0 0 0 0 0 0 0 0 0 0 0 0 0 0 1 1 1 0 0 0 0 0 0 0 0 0 0 0 0 0
Wind_Speed
4 4 3 3 3 3 3 3 3 2 3 3 3 2 1 1 1 1 1 1 1 1 1 1 1 0 1 0 1 1 1 2 2 2 1 1 1 1 0 1 2 2 3
4 3 3 3 3 3 3 3 3 3 3 3 3 2 2 1 1 2 2 1 1 2 1 1 1 0 0 0 1 1 1 1 2 2 1 1 1 1 1 1 1 1 2
3 3 3 3 3 3 3 2 3 3 3 2 3 3 2 2 1 2 2 2 2 2 2 2 1 1 0 0 0 0 0 1 1 2 1 1 1 0 1 1 1 1 2
3 3 3 4 4 4 3 3 3 3 3 3 3 3 3 2 2 2 2 1 1 1 2 2 2 2 2 1 1 1 1 1 1 1 0 1 1 0 1 0 1 1 2
3 3 3 3 3 3 2 2 3 3 3 3 3 2 2 2 2 2 2 2 2 1 1 1 2 2 3 2 1 1 2 1 1 1 1 0 1 0 1 1 2 1 2
2 2 2 2 3 3 3 3 2 2 2 2 3 2 2 1 2 3 3 2 2 2 2 1 1 1 2 1 1 2 3 3 3 2 2 2 2 2 2 2 1 1 2
1 1 1 2 2 3 3 3 3 3 3 3 3 3 2 2 3 4 4 3 3 3 3 2 1 1 1 0 1 1 1 3 5 4 3 4 4 3 3 2 2 2 3
1 1 2 2 2 2 2 3 3 3 3 3 3 3 2 2 3 4 4 3 3 3 3 3 3 2 1 1 1 0 1 2 2 3 4 4 4 4 4 4 3 2 2
1 2 2 2 2 2 2 3 3 3 3 3 3 3 3 2 3 3 3 2 2 2 2 3 3 2 3 3 2 1 2 3 3 3 4 5 6 6 4 2 1 1 2
2 2 1 1 2 3 3 3 3 3 4 3 3 3 3 2 2 3 3 2 2 2 1 2 3 3 4 3 2 2 2 4 3 3 3 4 3 4 5 5 4 3 2
1 1 1 2 2 3 3 2 2 3 3 2 3 2 2 3 3 4 3 2 3 2 2 1 2 3 3 3 3 3 5 4 2 2 2 3 2 2 2 3 4 4 4
0 1 2 2 2 1 1 1 2 2 2 2 2 1 1 2 3 3 3 3 2 3 2 2 2 3 3 3 3 4 4 2 1 1 1 2 2 2 2 2 3 3 4
0 1 1 1 1 1 1 1 1 2 2 2 2 2 1 1 1 3 4 4 3 2 2 3 3 4 3 2 3 4 2 1 1 1 2 3 3 2 2 1 2 1 2
1 1 1 1 1 0 0 1 1 2 2 2 3 2 2 1 1 1 1 2 2 1 1 1 2 2 1 1 2 1 1 1 2 2 2 2 2 1 1 1 1 1 1
0 1 1 1 1 1 0 0 1 2 4 4 4 4 4 3 4 4 3 3 3 3 1 1 1 1 1 1 1 1 1 0 0 1 1 2 1 1 2 1 1 1 1
0 1 1 0 1 1 1 2 4 2 2 3 4 4 2 4 4 3 4 4 3 4 3 1 0 1 1 1 1 1 1 1 1 1 1 1 2 2 2 1 1 1 1
1 1 1 0 1 1 2 2 0 3 4 2 1 2 3 2 2 2 3 3 3 5 3 1 1 2 2 1 1 1 1 1 1 1 1 1 1 1 1 1 1 1 1
0 0 0 1 1 1 1 1 1 1 1 2 2 1 1 2 2 2 3 4 2 2 1 1 2 2 2 1 1 1 1 0 0 0 1 1 0 1 1 1 1 1 1
0 0 0 0 0 1 1 1 1 1 1 1 1 2 2 2 4 4 4 2 2 1 1 2 2 2 1 1 1 1 0 0 0 0 0 0 0 0 1 1 1 2 1
1 1 1 1 1 1 1 1 1 1 1 1 1 1 1 2 2 2 1 1 1 1 1 1 1 1 1 1 0 0 0 0 0 0 0 1 1 1 1 1 1 1 1
1 1 1 1 1 1 1 1 2 1 1 2 1 1 3 2 2 2 1 1 2 1 1 1 0 0 0 0 0 0 0 0 0 1 1 1 1 1 1 1 2 1 1
1 1 1 1 1 1 1 1 2 2 2 2 1 1 3 2 2 1 1 1 1 1 1 1 1 1 1 1 1 1 1 0 1 1 1 1 1 1 1 1 1 1 1
1 1 1 0 1 1 1 1 1 1 2 2 2 2 2 1 1 1 1 1 1 1 1 1 1 1 0 1 1 2 2 2 2 2 1 1 1 1 1 1 2 1 1
1 0 0 0 0 1 1 1 2 2 2 2 2 2 2 2 2 1 1 1 1 1 1 1 1 1 1 1 1 1 1 2 2 2 2 2 2 1 1 1 1 1 1
1 1 0 0 0 0 0 1 2 2 2 2 2 2 2 2 1 1 1 1 1 1 1 0 0 1 1 1 1 1 1 1 1 1 2 2 2 2 2 2 2 1 1
1 1 1 1 1 1 1 1 1 1 1 1 1 2 2 2 2 1 1 1 1 1 0 0 0 0 1 1 1 1 1 1 1 1 1 1 2 2 2 2 2 1 2
Wind_Direction
177 182 181 187 185 177 174 178 176 173 169 172 177 167 177 186 168 150 185 161 143 151 146 138 170 158 121 90 112 129 150 150 185 260 250 265 210 203 238 220 206 207 221
172 165 169 170 164 167 182 187 174 172 174 174 170 166 179 187 183 168 190 173 158 166 177 150 176 125 101 192 133 140 167 169 169 216 270 268 238 225 221 248 230 215 226
160 158 163 169 170 179 184 178 167 166 167 166 161 171 178 177 183 189 177 177 181 184 182 172 184 130 139 252 173 181 191 160 152 161 228 281 277 167 57 301 293 298 253
157 165 181 190 189 191 182 171 173 175 172 175 180 183 182 181 181 174 161 155 168 191 191 185 182 168 183 193 191 197 171 129 127 149 188 266 270 343 101 163 292 289 270
142 163 198 199 184 177 172 177 182 186 186 182 179 188 191 189 194 175 179 175 171 188 196 174 186 180 180 185 186 185 159 157 164 171 212 251 255 167 215 225 236 266 276
153 168 191 181 173 182 188 187 184 189 189 177 176 179 186 221 197 185 176 176 179 179 187 194 219 175 176 172 167 181 175 174 185 189 209 218 240 221 209 215 216 245 282
161 169 161 174 189 198 196 187 194 201 195 190 190 177 187 220 195 190 192 183 184 186 183 185 211 224 188 183 239 241 225 213 196 187 204 225 226 221 201 225 226 226 240
154 181 178 166 195 213 202 203 209 202 198 201 195 191 192 215 191 190 190 185 187 189 191 188 186 210 220 171 169 279 284 269 233 208 212 232 232 223 207 211 214 234 272
197 209 194 184 212 228 222 224 215 195 196 196 190 188 191 213 192 186 172 165 179 199 209 198 186 194 209 180 143 182 302 299 284 257 244 252 252 243 214 170 183 175 270
235 233 213 198 218 229 228 220 208 190 195 193 189 191 185 196 190 176 160 167 179 199 221 217 203 203 203 184 167 186 249 272 290 310 305 296 273 252 223 197 195 197 216
246 257 238 232 220 215 212 202 188 189 181 186 192 204 202 197 190 181 171 169 188 189 197 222 239 225 223 225 211 209 231 249 268 269 281 288 290 277 255 221 203 197 206
115 247 263 250 238 214 178 178 177 170 172 187 190 211 238 216 194 192 186 190 187 178 198 212 231 238 241 241 231 238 243 244 230 267 283 280 276 277 275 257 233 229 225
324 260 232 250 259 192 158 167 193 180 174 187 187 199 230 249 229 206 189 195 199 193 214 227 238 241 242 253 251 257 248 195 188 218 249 262 262 269 286 304 306 292 301
238 242 234 227 244 138 140 169 189 196 187 186 188 192 207 221 220 208 198 200 213 229 266 277 261 239 234 262 278 281 245 207 201 220 240 258 272 291 288 274 284 304 313
272 280 259 215 196 158 58 348 228 231 212 197 198 193 188 213 230 205 188 194 197 198 158 59 38 28 4 345 335 313 310 43 226 250 241 266 282 287 281 271 254 253 244
319 295 277 236 200 155 130 16 6 336 250 214 205 194 205 208 208 196 198 196 183 154 131 134 218 242 244 249 252 267 259 240 239 242 250 247 250 254 275 297 286 240 249
210 249 267 256 191 171 169 158 58 8 26 23 198 182 185 191 177 173 178 158 138 133 128 170 218 229 242 248 251 253 257 257 235 199 233 262 270 266 261 275 281 274 264
298 241 235 233 199 182 188 186 166 153 64 9 13 67 156 164 147 125 110 102 79 101 159 205 228 233 233 248 266 263 268 288 50 236 252 279 264 245 264 276 270 256 259
326 266 270 251 219 194 185 171 156 141 136 127 67 30 50 92 92 97 112 115 150 186 215 227 222 216 217 224 248 260 230 197 182 188 228 259 268 262 283 282 280 280 275
278 264 255 222 211 199 180 166 168 163 166 168 155 157 120 89 83 89 111 150 171 200 218 224 215 198 195 205 260 270 40 52 33 314 260 258 265 251 261 273 277 271 256
265 257 246 214 215 205 193 192 191 179 179 178 189 179 149 145 156 153 163 182 196 203 210 207 186 171 222 128 140 172 155 200 228 239 252 267 273 281 274 270 278 263 266
218 243 245 220 215 211 208 196 181 177 173 170 177 163 151 116 122 136 165 181 190 187 175 166 175 201 214 208 196 187 189 220 261 265 264 269 273 279 285 287 290 277 266
223 219 253 255 211 195 187 187 172 157 149 150 153 141 145 151 155 172 194 202 204 197 155 139 150 183 236 229 194 177 188 212 223 220 226 247 262 270 267 264 275 283 275
46 127 172 261 185 181 189 176 161 151 144 140 145 150 156 164 169 179 192 175 160 161 151 150 165 186 204 222 227 206 208 219 214 209 210 216 235 252 262 270 272 260 265
63 86 124 162 336 83 144 141 140 139 140 144 150 157 162 157 156 166 177 149 138 140 144 152 177 194 221 234 245 236 229 229 221 217 208 201 221 237 244 255 261 262 270
59 74 79 80 72 67 85 115 122 118 124 138 150 164 169 167 162 167 168 135 116 111 107 67 67 232 265 263 251 236 208 208 227 233 203 190 208 235 244 250 260 259 265